Flag for U.S.A. Weather past 2 weeks in Naples, Florida, U.S.A.

Now
79 °F

Scattered clouds.


Feels Like: 82 °F
Forecast: 66 / 77 °F
Wind: 13 mph from South

Location: Naples Municipal

Current Time: Dec 22, 2014 at 3:54:52 PM

Latest Report: Dec 22, 2014 at 2:53 PM


Visibility: 10 mi

Pressure: 29.93 "Hg

Humidity: 74%

Dew point: 70 °F

Location of NaplesLocation

Historic Weather in Naples — Graph

°F

Naples temperature yesterday

Maximum temperature yesterday: 80 °F (at 12:53 PM)
Minimum temperature yesterday: 62 °F (at 5:53 AM)
Average temperature yesterday: 71 °F

Past Weeks' High & Low Weather Summary

 TemperatureHumidityPressure
High81 °F (Dec 22, 11:53 AM)100% (Dec 18, 4:53 AM)30.26 "Hg (Dec 18, 4:53 AM)
Low47 °F (Dec 14, 6:53 AM)32% (Dec 12, 2:53 PM)29.93 "Hg (Dec 22, 2:53 PM)
Average62 °F73%30.10 "Hg
* Reported Dec 7 3:00 PM — Dec 22 2:53 PM, Naples, Weather by CustomWeather, © 2014

Note: Actual official high and low records may vary slightly from our data, if they occured in-between our weather recording intervals... More about our weather records

Advertising

Naples weather history for previous 24 hours

 ConditionsComfort  
Time TempWeatherWind HumidityBarometerVisibility
2:53 PM
Dec 22
79 °FScattered clouds.13 mph74%29.93 "Hg10 mi
1:53 PM80 °FScattered clouds.12 mph69%29.94 "Hg10 mi
12:53 PM80 °FOvercast.13 mph69%29.97 "Hg10 mi
11:53 AM81 °FScattered clouds.15 mph65%29.99 "Hg10 mi
10:53 AM79 °FSunny.13 mph67%30.01 "Hg10 mi
9:53 AM76 °FSunny.12 mph77%30.02 "Hg10 mi
8:53 AM72 °FSunny.8 mph87%30.02 "Hg10 mi
7:53 AM69 °FSunny.6 mph90%30.01 "Hg10 mi
6:53 AM67 °FClear.9 mph93%29.98 "Hg10 mi
5:53 AM68 °FClear.7 mph90%29.98 "Hg10 mi
4:53 AM68 °FClear.8 mph90%29.97 "Hg10 mi
3:53 AM68 °FClear.5 mph90%29.99 "Hg10 mi
2:53 AM68 °FPassing clouds.5 mph93%30.00 "Hg10 mi
1:53 AM69 °FOvercast.5 mph90%30.02 "Hg10 mi
12:53 AM69 °FPassing clouds.5 mph90%30.02 "Hg10 mi
11:53 PM
Dec 21
70 °FPassing clouds.3 mph90%30.03 "Hg10 mi
10:53 PM70 °FPassing clouds.No wind90%30.03 "Hg10 mi
9:53 PM72 °FMostly cloudy.6 mph84%30.03 "Hg10 mi
8:53 PM72 °FMostly cloudy.6 mph81%30.02 "Hg10 mi
7:53 PM72 °FPassing clouds.7 mph81%30.01 "Hg10 mi
6:53 PM73 °FPassing clouds.8 mph79%30.00 "Hg10 mi
5:53 PM74 °FPassing clouds.12 mph76%30.00 "Hg10 mi
4:53 PM76 °FBroken clouds.8 mph72%30.00 "Hg10 mi
3:53 PM78 °FMostly cloudy.10 mph66%30.00 "Hg10 mi
Weather by CustomWeather, © 2014

See weather overviewHow to use our weather pages